User: anonymous   Login
Location: Vancouver
(49.2500°N, 123.1330°W)
Time: 13:24:16
(UTC-07:00)
Language:

Transit 2A Rocket - Orbit

View from above orbital plane
View from above orbital plane
View from above satellite
View from above satellite

Ground track
Ground track

The orbit data is extracted from the following two-line orbital elements,

1 00047U 60007C   15149.30074065  .00000054  00000-0  37095-4 0  9996
2 00047 066.6670 050.0898 0233365 215.2018 143.3483 14.41624230868965
Epoch (UTC): 29 May 2015 07:13:03
Eccentricity: 0.0233365
inclination: 66.6670°
perigee height: 587 km
apogee height: 919 km
right ascension of ascending node: 50.0898°
argument of perigee: 215.2018°
revolutions per day: 14.41624230
mean anomaly at epoch: 143.3483°
orbit number at epoch: 86896

The dashed part of the orbit path shows where the satellite is in the earth's shadow,  

DLR